Regional Weather Roundup
Issued by NWS New Orleans/Baton Rouge, LA

Home | Current Version | Previous Version | Text Only | Print | Product List | Glossary On
Versions: 1 2 3 4 5 6 7 8 9 10 11 12 13 14 15 16 17 18 19 20 21 22 23 24 25 26 27 28 29 30 31 32 33 34 35 36 37 38 39 40 41 42 43 44 45 46 47 48 49 50
463
ASUS44 KLIX 290305
RWRLIX
NEW ORLEANS REGIONAL WEATHER ROUNDUP
NATIONAL WEATHER SERVICE NEW ORLEANS LA
1000 PM CDT THU AUG 28 2014

NOTE: "FAIR" INDICATES FEW OR NO CLOUDS BELOW 12,000 FEET WITH NO
      SIGNIFICANT WEATHER AND/OR OBSTRUCTIONS TO VISIBILITY.
      SKY/WX - SKY CONDITION AND SIGNIFICANT WEATHER.
      TMP - AIR TEMPERATURE.     DP    - DEWPOINT TEMPERATURE.
      RH  - RELATIVE HUMIDITY.   PRES  - PRESSURE.
      HI  - HEAT INDEX.          WCI   - WIND CHILL INDEX.

*  THESE STATIONS ARE NOT NWS OR FAA STATIONS AND ARE NOT UNDER
   NWS QUALITY CONTROL.

LAZ038-040-048-061>063-065>067-069-290400-
SOUTHEAST LOUISIANA

CITY           SKY/WX    TMP DP  RH WIND       PRES   REMARKS
N.O. AUDUBON     N/A     85  73  67 MISG        N/A
N.O. INTL ARPT PTCLDY    83  73  72 SE8       29.96R
N.O. LAKEFRONT PTCLDY    82  74  76 SE9       29.97R
N.O. DOWNTOWN*   N/A     82  72  69 SE6       29.98R
SLIDELL        PTCLDY    77  73  87 CALM      29.96R
BATON ROUGE    CLOUDY    80  75  84 E6        29.96R
BOOTHVILLE     CLEAR     82  75  79 E5        29.98R
BELLE CHASSE   PTCLDY    83  72  69 SE5       29.96R
BOGALUSA*        N/A     82  73  73 S5        29.99R
GALLIANO*      NOT AVBL
NEW ROADS*       N/A     81  75  84 SE5       29.95R
GONZALES*        N/A     81  76  83 CALM      29.95S
HAMMOND*       MOCLDY    81  72  74 E6        29.98R
HOUMA*         PTCLDY    77  72  83 CALM      29.96R
PORT FOURCHON* CLEAR     84  73  70 SE13      29.97S

$$

MSZ070-080>082-290400-
SOUTHERN MISSISSIPPI

CITY           SKY/WX    TMP DP  RH WIND       PRES   REMARKS
MCCOMB         CLOUDY    79  73  82 CALM      29.98R
GULFPORT       CLEAR     82  72  71 S3        29.97R
BILOXI         PTCLDY    84  70  63 S6        29.97R
PASCAGOULA     CLEAR     73  71  93 CALM      29.98R

$$

COASTAL OBSERVATIONS
LAKE AND NEARSHORE STATIONS

STATION/POSITION TIME  TEMP    WIND        PRES    WAVE
                       AIR SEA DIR/SP/G            HT/PER
                 (UTC) (F)     (DEG/KT/KT) (MB)    (FT/S)
PASCAGOULA       0300   84     140/  5/  9 1014.5
WAVELAND YACHT   0300   85     150/  7/  9 1014.2
GRAND ISLE       0300   84 84  120/  6/ 10 1015.2
SOUTHWEST PASS   0300   85 89  110/ 16/ 19 1014.8
NEW CANAL        0300   83 85  140/  1/  4 1015.2
SHELL BEACH      0300   83 82  120/  8/ 10 1014.7

OFFSHORE STATIONS

STATION/POSITION TIME  TEMP    WIND        PRES    WAVE
                       AIR SEA DIR/SP/G            HT/PER
                 (UTC) (F)     (DEG/KT/KT) (MB)    (FT/S)
64 S DAUPHIN ISL 0213   85 85  110/ 14/ 17 1014.9

$$




USA.gov is the U.S. government's official web portal to all federal, state and local government web resources and services.